This is the latest recevied weather packets stored in our database for station/object F5GJJ-13. If no packets are shown the sender has not sent any weather packets the latest 10 day(s).
| Time | Temp. | Humidity | Pressure | Rain* | Wind** | Luminosity | Snow |
|---|---|---|---|---|---|---|---|
| 1778009159 | 15.56° C | 76% | 1010.6 hPa | 0 mm | - | - | - |
| 1778009112 | 15.56° C | 76% | 1010.6 hPa | 0 mm | - | - | - |
| 1778008153 | 15.56° C | 75% | 1010.6 hPa | 0 mm | - | - | - |
| 1778007359 | 16.11° C | 74% | 1009.6 hPa | 0 mm | - | - | - |
| 1778007192 | 16.11° C | 74% | 1009.6 hPa | 0 mm | - | - | - |
| 1778006233 | 16.11° C | 72% | 1011.2 hPa | 0 mm | - | - | - |
| 1778005557 | 16.67° C | 72% | 1011.6 hPa | 0 mm | - | - | - |
| 1778005273 | 16.67° C | 72% | 1010.6 hPa | 0 mm | - | - | - |
| 1778004313 | 16.67° C | 71% | 1010.6 hPa | 0 mm | - | - | - |
| 1778003757 | 16.67° C | 68% | 1010.6 hPa | 0 mm | - | - | - |
| 1778003352 | 16.67° C | 67% | 1009.6 hPa | 0 mm | - | - | - |
| 1778002392 | 17.22° C | 68% | 1009.6 hPa | 0 mm | - | - | - |
| 1778001959 | 17.22° C | 68% | 1009.6 hPa | 0 mm | - | - | - |
| 1778001433 | 17.78° C | 68% | 1010.6 hPa | 0 mm | - | - | - |
| 1778000472 | 18.33° C | 65% | 1010.6 hPa | 0 mm | - | - | - |
| 1778000159 | 18.33° C | 66% | 1010.6 hPa | 0 mm | - | - | - |
| 1777999512 | 19.44° C | 65% | 1010.6 hPa | 0 mm | - | - | - |
| 1777998552 | 20° C | 67% | 1010.6 hPa | 0 mm | - | - | - |
| 1777998358 | 20° C | 68% | 1010.6 hPa | 0 mm | - | - | - |
| 1777997592 | 20.56° C | 71% | 1010.6 hPa | 0 mm | - | - | - |
| 1777996633 | 19.44° C | 72% | 1010.6 hPa | 0 mm | - | - | - |
| 1777996557 | 19.44° C | 72% | 1010.6 hPa | 0 mm | - | - | - |
| 1777995671 | 20° C | 69% | 1010.6 hPa | 0 mm | - | - | - |
| 1777994758 | 20.56° C | 68% | 1011.6 hPa | 0 mm | - | - | - |
| 1777994713 | 20.56° C | 68% | 1011.6 hPa | 0 mm | - | - | - |
* Rain latest hour (hover to see other rain measurements)
** Current wind speed in m/s (hover to see current wind gust speed)